This demonstration page uses our WeatherBlox Daily Observations layout. Learn more.

Left ArrowRight Arrow

Hourly Observations for May 1, 2020

Temp ( °F °C ) Dew Point ( °F °C ) Humidity (%) Winds ( mph kmh ) Pressure ( in mb ) Visibility ( mi km ) Precip ( " mm )
12:52 am 00:52 Clear 50 10 46 7.8 86 86 SSE 5 7 29.96 1015 10 16 0.00 0.00
1:52 am 01:52 Clear 50 10 46 7.8 86 86 S 3 6 29.96 1015 10 16 0.00 0.00
2:52 am 02:52 Clear 50 10 46 7.8 86 86 SSE 6 9 29.96 1014 10 16 0.00 0.00
3:52 am 03:52 Clear 50 10 46 7.8 86 86 Calm 29.95 1014 10 16 0.00 0.00
4:52 am 04:52 Clear 50 10 46 7.8 86 86 SSE 9 15 29.95 1014 10 16 0.00 0.00
5:52 am 05:52 Clear 48 8.9 45 7.2 89 89 SSE 7 11 29.96 1015 10 16 0.00 0.00
6:52 am 06:52 Sunny 51 10.6 47 8.3 86 86 SSE 10 17 29.97 1015 10 16 0.00 0.00
7:52 am 07:52 Sunny 55 12.8 49 9.4 80 80 SSE 9 15 29.99 1016 10 16 0.00 0.00
8:52 am 08:52 Sunny 63 17.2 50 10 63 63 SSE 10 17 30.00 1016 10 16 0.00 0.00
9:52 am 09:52 Sunny 67 19.4 50 10 55 55 SSE 14 22 30.00 1016 10 16 0.00 0.00
10:52 am 10:52 Sunny 69 20.6 49 9.4 49 49 SSE 16 26 29.99 1016 10 16 0.00 0.00
11:52 am 11:52 Sunny 72 22.2 50 10 46 46 SSE 14 22 29.98 1015 10 16 0.00 0.00
12:52 pm 12:52 Sunny 74 23.3 50 10 43 43 SSE 14 22 29.95 1014 10 16 0.00 0.00
1:52 pm 13:52 Sunny 76 24.4 52 11.1 43 43 S 15 24 29.92 1013 10 16 0.00 0.00
2:52 pm 14:52 Sunny 77 25 52 11.1 42 42 SSE 14 22 29.90 1012 10 16 0.00 0.00
3:52 pm 15:52 Sunny 79 26.1 52 11.1 39 39 S 16 26 29.87 1011 10 16 0.00 0.00
4:52 pm 16:52 Sunny 79 26.1 52 11.1 39 39 S 15 24 29.85 1011 10 16 0.00 0.00
5:52 pm 17:52 Sunny 79 26.1 53 11.7 41 41 S 13 20 29.85 1011 10 16 0.00 0.00
6:52 pm 18:52 Sunny 77 25 53 11.7 43 43 SSE 14 22 29.83 1010 10 16 0.00 0.00
7:52 pm 19:52 Sunny 73 22.8 52 11.1 48 48 SSE 10 17 29.85 1011 10 16 0.00 0.00
8:52 pm 20:52 Clear 71 21.7 52 11.1 51 51 S 12 19 29.86 1011 10 16 0.00 0.00
9:52 pm 21:52 Clear 69 20.6 52 11.1 55 55 SSE 12 19 29.88 1012 10 16 0.00 0.00
10:52 pm 22:52 Clear 67 19.4 52 11.1 59 59 SSE 13 20 29.89 1012 10 16 0.00 0.00
11:52 pm 23:52 Mostly Cloudy 67 19.4 53 11.7 61 61 S 13 20 29.88 1012 10 16 0.00 0.00

Powered by AerisWeather